Location: Unspecified
(52.9833°N, 0.0000°E)
Time: 07:00:03
(UTC+00:00)

Vanguard 3 - All Passes

Search period start: 04 April 2026 00:00
Search period end: 14 April 2026 00:00
Orbit: 508 x 3205 km, 33.3° (Epoch: 28 March)

Date Brightness Start Highest point End Pass type
(mag) Time Alt. Az. Time Alt. Az. Time Alt. Az.
4 Apr - 04:28:18 10° SSW 04:32:50 18° SSE 04:39:00 10° SE visible
4 Apr - 06:37:16 10° SW 06:43:20 20° S 06:51:43 10° SSE daylight
4 Apr - 08:50:23 10° SW 08:54:36 12° SSW 08:59:26 10° S daylight
5 Apr - 03:09:45 10° S 03:11:51 12° SSE 03:14:14 10° SE visible
5 Apr - 05:16:42 10° SW 05:21:39 19° S 05:28:26 10° SE daylight
5 Apr - 07:27:12 10° SW 07:32:28 16° SSW 07:39:09 10° SSE daylight
6 Apr - 03:56:59 10° SSW 04:00:23 15° SSE 04:04:42 10° SE visible
6 Apr - 06:05:49 10° SW 06:10:37 17° S 06:16:58 10° SSE daylight
7 Apr - 04:45:23 10° SSW 04:49:09 15° S 04:54:00 10° SE visible
7 Apr - 06:56:13 10° SW 06:59:42 13° SSW 07:03:48 10° S daylight
8 Apr - 03:26:01 10° S 03:28:02 12° SSE 03:30:21 10° SSE visible
8 Apr - 05:34:42 10° SSW 05:38:03 13° S 05:42:10 10° SSE daylight
9 Apr - 04:14:24 10° SSW 04:16:45 12° S 04:19:30 10° SSE visible
10 Apr - 05:04:49 10° SSW 05:05:36 10° S 05:06:25 10° S daylight
